Simultaneous Nadir Overpasses (SNOs) Predictions

Prediction of SNOs between GOES-17 and METOP-B Satellite Orbit:

Table of predicted SNOs for the next 14.0 days since TLE Epoch: 6/3/2023
Index Date Time (GOES-17) GOES-17 Lat,Lon METOP-B Lat,Lon Distance(km) Time Diff (sec)
1 06/03/2023 16:15:15 -0.00,-104.74 -0.81,-101.19 405.35 80
2 06/05/2023 04:34:15 0.01,-104.69 -0.22,-105.79 124.16 80
3 06/06/2023 04:10:55 0.01,-104.69 0.89,-100.79 444.20 80
4 06/07/2023 16:29:47 -0.01,-104.72 0.13,-105.36 71.94 80
5 06/08/2023 16:11:47 -0.01,-104.72 -0.99,-100.36 496.81 80
6 06/10/2023 04:30:47 0.01,-104.68 -0.03,-104.96 32.14 80
7 06/12/2023 16:28:59 -0.01,-104.72 -0.07,-104.54 21.15 80
8 06/15/2023 04:24:39 0.01,-104.68 0.13,-104.13 62.00 80
9 06/16/2023 16:43:30 -0.02,-104.71 0.87,-108.70 454.41 80
